TIME,DELAY(SENSOR),PRES,OXYGEN,RAWTEMP,T(OPTODE),TCPHASE,FLUOR,BETA(BETA700),BETA(BETA412),BETA(BETA440),CDOM,C(CSC),ED(ED411.90),ED(ED443.80),ED(ED489.40),ED(ED554.70),LU(LU412.20),LU(LU443.80),LU(LU489.40),LU(LU555.00),COMP,TILTX,TILTY,CHECK
1370820038,5803,825.9000244140625000,158.4756011962890600,429.8482971191406000,9.6909055709838870,39.5765914916992200,53,101,96,79,80,10108,2146962733,2147516297,2147287094,2147498368,2147085037,2146930596,2147703707,2147124123,2667,-1,8,1655
1370823634,5805,933.7500000000000000,187.2227935791015600,493.5033874511719000,7.7309060096740720,38.6006889343261700,52,104,97,85,80,10101,2146959314,2147517458,2147291291,2147510491,2147087177,2146926592,2147711085,2147121069,1800,-1,8,21162
1370827234,5805,953.5399780273438000,188.4237976074218800,507.3631896972656000,7.3008751869201660,38.7632408142089840,53,116,97,80,80,10092,2146959433,2147519478,2147296557,2147513837,2147088429,2146926144,2147721737,2147125467,3564,-1,8,47393
1370830834,5804,967.8499755859375000,184.5587005615234400,517.0474853515625000,6.9996218681335450,39.1891899108886700,51,106,97,80,81,10099,2146965467,2147518976,2147296896,2147513408,2147087762,2146924653,2147724224,2147121453,3164,-1,8,40512
1370834434,5806,965.5200195312500000,191.4232025146484400,520.8441772460938000,6.8813371658325195,38.8064994812011700,52,108,96,81,80,10093,2146961490,2147518930,2147299949,2147511826,2147084123,2146926546,2147720667,2147120109,3443,-1,8,22344
1370838034,5802,967.2000122070312000,206.3589935302734400,521.8734741210938000,6.8492522239685060,37.8973503112793000,52,105,97,80,81,10096,2146960566,2147518518,2147296329,2147513526,2147086290,2146920192,2147721462,2147115721,3550,0,8,27008
1370841634,5806,993.3900146484375000,210.1573944091797000,532.8901977539062000,6.5053558349609375,37.8695793151855500,53,109,97,80,81,10086,2146961938,2147523364,2147298368,2147516388,2147086866,2146919414,2147724489,2147121508,674,-1,8,34013
1370845234,5804,1000.1300048828125000,213.1428985595703000,533.4127197265625000,6.4890232086181640,37.7048416137695300,51,105,100,79,80,10088,2146964077,2147517568,2147294921,2147514368,2147085531,2146922569,2147728347,2147118765,3334,-1,8,55937
1370848834,5807,998.6099853515625000,203.7687988281250000,535.4379882812500000,6.4256939888000490,38.2963905334472660,52,114,98,80,81,10082,2146963840,2147523264,2147297618,2147516141,2147087661,2146921426,2147725083,2147119899,831,-1,8,25446
1370852434,5807,1007.4500122070312000,206.0738983154297000,533.5424194335938000,6.4849681854248050,38.1235389709472660,53,112,97,82,81,10084,2146963593,2147519579,2147299702,2147519835,2147083675,2146919716,2147725211,2147122203,328,0,8,22445
1370856034,5805,1009.1500244140625000,209.7984008789062500,532.7667236328125000,6.5092158317565920,37.8881416320800800,52,105,98,80,80,10082,2146963858,2147518354,2147296676,2147516754,2147085421,2146920512,2147722752,2147120621,3513,-1,8,44186
1370859634,5802,1011.5800170898438000,218.3627929687500000,532.9741210937500000,6.5027308464050290,37.3984413146972660,52,108,98,80,80,10082,2146961508,2147517302,2147296731,2147519478,2147086464,2146919981,2147724169,2147122422,3091,-1,8,36891
1370863234,5808,1008.1199951171875000,218.1361999511718800,531.7877807617188000,6.5398058891296390,37.3896484375000000,52,109,98,81,81,10080,2146963428,2147518985,2147299355,2147516736,2147088585,2146918902,2147722907,2147118253,107,-1,8,23544
1370866834,5809,1011.5900268554688000,223.2062072753906200,531.4157104492188000,6.5514340400695800,37.0998802185058600,53,108,98,80,80,10081,2146961572,2147520649,2147295350,2147520338,2147089115,2146928676,2147725906,2147118454,1763,-1,8,34650
1370870434,5806,1008.2399902343750000,221.0926055908203000,532.7882080078125000,6.5085430145263670,37.2415199279785160,51,108,97,80,81,10081,2146962386,2147519826,2147296758,2147516790,2147086080,2146919853,2147722148,2147122916,419,-1,8,54674
1370874034,5805,1008.2100219726562000,223.1275024414062500,533.3729858398438000,6.4902629852294920,37.1390800476074200,51,109,97,80,81,10079,2146961563,2147521938,2147297508,2147517504,2147087250,2146921243,2147728000,2147120137,3468,-1,8,60190
1370877634,5808,998.3699951171875000,216.2570953369140600,535.9600219726562000,6.4093670845031740,37.5708503723144500,52,106,98,80,80,10045,2146962596,2147517632,2147297773,2147517632,2147088256,2146917248,2147727232,2147121837,3586,-1,8,6421
1370881234,5808,1003.4299926757812000,225.4761962890625000,536.6173706054688000,6.3888030052185060,37.0680007934570300,52,106,98,80,81,10078,2146965366,2147517686,2147295625,2147518208,2147086171,2146920832,2147725312,2147120082,38,-1,8,65355
1370884834,5808,1006.1599731445312000,221.6940002441406200,536.4390869140625000,6.3943810462951660,37.2733001708984400,52,112,97,82,81,10066,2146962998,2147524224,2147297993,2147521014,2147088182,2146921737,2147724690,2147119469,91,-1,8,26822
1370888434,5804,1008.4899902343750000,216.2994995117187500,535.2946777343750000,6.4301738739013670,37.5569686889648440,53,107,99,81,80,10065,2146964086,2147519469,2147297755,2147515620,2147085659,2146919332,2147723190,2147122624,3361,-1,8,56715
1370892034,5805,1008.5700073242188000,222.6311035156250000,534.2924804687500000,6.4615149497985840,37.1823616027832000,52,108,98,79,79,10064,2146962669,2147518107,2147297929,2147517092,2147088877,2146924297,2147727259,2147120868,106,0,8,43432
1370895634,5804,1016.5599975585938000,225.4996032714843800,533.6276245117188000,6.4823021888732910,37.0128593444824200,53,107,98,81,80,10063,2146963126,2147519286,2147299602,2147517147,2147086189,2146922267,2147727268,2147121353,3015,-1,8,10502
1370899234,5804,1015.5100097656250000,218.7469940185547000,533.0197143554688000,6.5013070106506350,37.3772315979003900,53,121,99,80,81,10059,2146963456,2147517586,2147296429,2147515291,2147087131,2146922706,2147726418,2147123968,3341,-1,8,33012
1370902834,5808,1023.0200195312500000,221.9290008544922000,530.6934814453125000,6.5739970207214355,37.1577796936035160,51,110,97,80,81,10065,2146962477,2147520036,2147299172,2147515044,2147086080,2146922752,2147721709,2147123026,62,0,8,36018
1370906434,5806,1020.0300292968750000,218.4806976318359400,530.9627075195312000,6.5655879974365230,37.3554306030273440,53,105,99,80,81,10063,2146964187,2147519908,2147297453,2147515648,2147086710,2146922459,2147722889,2147120960,315,-1,8,48315
1370910034,5804,1015.8200073242188000,220.8663024902343800,531.2968139648438000,6.5551509857177730,37.2276115417480500,52,106,97,80,80,10058,2146964105,2147518080,2147297764,2147517595,2147088576,2146916781,2147725385,2147119899,1436,-1,8,4719
1370913634,5808,1011.6400146484375000,212.3856964111328000,533.5430297851562000,6.4849491119384770,37.7515296936035160,53,107,97,79,81,10060,2146962605,2147519908,2147295396,2147518464,2147083940,2146923300,2147720795,2147119268,310,0,8,20535
1370917234,5804,1012.3699951171875000,223.8320007324218800,535.3273925781250000,6.4291529655456540,37.1347694396972660,53,106,97,79,80,10055,2146962258,2147519469,2147301842,2147518107,2147088667,2146922697,2147726902,2147120246,3230,-1,8,60310
1370920834,5807,1010.5900268554688000,224.6701049804687500,535.6403198242188000,6.4193668365478520,37.0952301025390600,52,112,98,80,81,10049,2146962642,2147521828,2147301650,2147520722,2147087990,2146922651,2147726473,2147121801,540,-1,8,48671
1370924434,5805,1004.7199707031250000,224.1235961914062500,537.6929931640625000,6.3551478385925290,37.1616287231445300,52,109,99,80,81,10053,2146961453,2147519954,2147298624,2147516032,2147088868,2146919954,2147722678,2147121746,123,-1,8,56966
1370928034,5805,1013.0999755859375000,231.3023071289062500,537.6359863281250000,6.3569297790527340,36.7725105285644500,53,107,97,81,80,10039,2146960969,2147521216,2147294482,2147518966,2147088713,2146922249,2147725028,2147121371,3542,-1,8,63954
1370931634,5804,1012.1699829101562000,228.4631958007812500,537.3262939453125000,6.3666229248046875,36.9191284179687500,53,107,99,79,81,10042,2146964114,2147520905,2147298176,2147518153,2147089426,2146920310,2147721718,2147122002,3483,-1,8,24256
1370935234,5806,1014.8800048828125000,225.7785034179687500,535.5504150390625000,6.4221777915954590,37.0321006774902340,53,114,98,79,80,10042,2146962706,2147519360,2147295981,2147515785,2147088576,2146921773,2147726902,2147122276,259,-1,8,15108
1370938834,5805,1019.6900024414062000,227.2595062255859400,534.6066894531250000,6.4516930580139160,36.9353904724121100,53,105,99,81,80,10040,2146965504,2147521298,2147298002,2147518674,2147089106,2146912813,2147727570,2147123556,3508,-1,8,39362
1370942434,5806,1018.2000122070312000,219.8972930908203000,534.4998779296875000,6.4550299644470215,37.3389511108398440,53,105,98,79,81,10036,2146962880,2147521837,2147297380,2147514788,2147087085,2146918299,2147723730,2147119597,3563,-1,8,54642
1370946034,5803,1015.8499755859375000,215.3190002441406200,534.6223144531250000,6.4512038230896000,37.6004600524902340,53,107,100,81,80,10037,2146966016,2147522166,2147295981,2147518189,2147088274,2146922038,2147722724,2147123072,3328,-1,8,32881
1370949634,5804,1021.6199951171875000,224.1244964599609400,532.7597045898438000,6.5094342231750490,37.0731811523437500,52,119,100,79,80,10038,2146964224,2147526336,2147297014,2147513874,2147085595,2146914139,2147729334,2147123748,2975,0,8,2619
1370953234,5806,1025.9100341796875000,225.3609924316406200,531.8778076171875000,6.5369949340820310,36.9894599914550800,53,105,98,82,81,10037,2146958134,2147520585,2147297325,2147516096,2147087186,2146916635,2147726802,2147122852,3302,-1,8,9759
1370956834,5805,1023.2199707031250000,219.4311981201172000,530.8001708984375000,6.5706629753112790,37.2986412048339840,53,106,97,81,80,10033,2146959771,2147519076,2147295670,2147514550,2147086153,2146916233,2147723821,2147121874,3115,-1,8,9584
1370960434,5807,1026.4100341796875000,218.1645965576172000,532.2979736328125000,6.5238628387451170,37.3972511291503900,53,107,98,81,80,10036,2146958747,2147520347,2147295853,2147513892,2147086006,2146916379,2147723529,2147121764,3579,-1,8,14550
1370960755,5807,1048.0000000000000000,222.0068054199218800,531.6013793945312000,6.5456309318542480,37.1693305969238300,52,107,98,81,81,10045,2146964059,2147519789,2147295616,2147516461,2147089005,2146923072,2147727433,2147123072,2838,0,8,54507
